Hourly Data Report for August 10, 2000

SHERBROOKE A
QUEBEC

45°26'00.000" N
71°41'00.000" W
241.40 m
7028124
71610
YSC

Download Data

Hourly Data (August 2000)
Hourly Data Report for August 10, 2000
TIME
LST
Temp Definition
°C
Dew Point Definition
°C
Rel Hum Definition
%
Precip. Amount Definition
mm

Wind Dir Definition
10's deg

Wind Spd Definition
km/h
Visibility Definition
km
Stn Press Definition
kPa
Hmdx Definition


Wind Chill Definition


Weather Definition


00:00 17.5 16.7 95   26 7 15.0 97.79      
01:00 17.2 16.7 97   26 7 6.4 97.79     Rain
02:00 17.2 16.8 97   23 7 15.0 97.79      
03:00 17.2 16.8 97   24 13 1.9 97.76     Rain
04:00 17.1 16.7 97   23 9 8.0 97.79     Rain
05:00 16.3 15.7 96   28 19 6.4 97.86     Moderate Drizzle
06:00 16.0 15.2 95   27 15 15.0 97.92      
07:00 16.4 15.3 93   28 13 16.1 97.99     Mostly Cloudy
08:00 16.8 15.0 89   28 17 19.3 98.06     Cloudy
09:00 18.3 15.5 84   28 13 24.1 98.12     Mostly Cloudy
10:00 20.8 16.0 74   28 17 24.1 98.12 25   Mostly Cloudy
11:00 21.3 14.7 66   29 24 24.1 98.19 25   Mainly Clear
12:00 22.8 14.5 59   32 15 24.1 98.19 26   Mainly Clear
13:00 22.5 14.6 61   28 24 24.1 98.22 26   Mostly Cloudy
14:00 22.8 14.8 61   29 15 24.1 98.26 27   Mainly Clear
15:00 24.2 15.0 56   28 20 24.1 98.29 28   Mainly Clear
16:00 24.5 14.6 54   30 20 24.1 98.32 28   Mainly Clear
17:00 24.1 14.8 56   31 9 15.0 98.36 28    
18:00 22.8 15.3 63   29 9 15.0 98.39 27    
19:00 19.8 15.2 75   26 4 15.0 98.39      
20:00 16.7 14.5 87   21 6 15.0 98.45      
21:00 15.9 14.7 93   12 6 15.0 98.49      
22:00 14.6 13.9 96   12 6 15.0 98.52      
23:00 14.7 14.3 97     0 15.0 98.52      

Notes on Data Quality.

Legend

  • E = Estimated
  • M = Missing
  • NA = Not Available*
  • [empty] = Indicates an unobserved value
Date modified: